Location: New Canada
(47.1017°N, 68.5042°W)
Time: 15:54:01
(UTC+00:00)

RS-44 - Pass Details

Date: 18 April 2024
Orbit: 1174 x 1511 km, 82.5° (Epoch: 20 May)

Event Time Altitude Azimuth Distance (km) Brightness Sun altitude
Rises 23:50:07 0° 162° (SSE) 4,641 ? -4.6°
Reaches altitude 10° 23:53:11 10° 156° (SSE) 3,659 ? -5.1°
Maximum altitude 00:01:26 46° 88° (E) 1,913 ? -6.4°
Drops below altitude 10° 00:09:25 10° 19° (NNE) 3,537 ? -7.6°
Sets 00:12:19 0° 14° (NNE) 4,475 ? -8.1°
